sat.trackr.live / text

‹ back to catalog

STARLINK-5217

NORAD 54098 · 2022-136AZ

PAYLOAD ACTIVE UNKNOWN

§ Identity

Operator
Country
US
Launch date
2022-10-20
Launch site
AFETR
Launch vehicle
Mass (kg)
RCS (m²)

Purposes: comms

External: N2YO · Heavens-Above · Gunter

§ Orbital elements

Epoch: 2026-09-20T22:00:03.000096Z

Period
94.68 min
Inclination
53.1593°
Eccentricity
0.0000411
Mean motion
15.20979568 rev/d
Perigee alt
502.6 km
Apogee alt
503.2 km
Semi-major
6,881.0 km
B*
4.8975e-4
RAAN
176.8426°
Arg perigee
159.3176°
Mean anomaly
54.2235°
Rev number
569

§ Raw data

STARLINK-52171 54098U 22136AZ  26263.91670139  .00010681  00000+0  48975-3 0  99962 54098  53.1593 176.8426 0000411 159.3176  54.2235 15.20979568  5699

JSON: /api/v1/satellites/54098 · /tle

For live sub-satellite position, see the globe view (requires WebGL).

§ Visibility from observer

Set your observer location to see the next 7 days of passes ≥ 10°. The values pass through the URL so the page stays shareable.

No JS? Fill the form by hand. The geolocation button needs JavaScript.